Location: Boitzum
(52.1496°N, 9.6943°E)
Time: 19:43:51
(UTC+00:00)

Sich 1 - Pass Details

Date: 13 January 2026
Orbit: 572 x 598 km, 82.5° (Epoch: 16 February)

Event Time Altitude Azimuth Distance (km) Brightness Sun altitude
Rises 05:57:16 0° 219° (SW) 2,807 6.2 -12.8°
Reaches altitude 10° 05:59:43 10° 232° (SW) 1,907 5.3 -12.4°
Maximum altitude 06:03:20 28° 291° (WNW) 1,122 3.8 -11.9°
Drops below altitude 10° 06:06:58 10° 351° (N) 1,906 5.3 -11.4°
Sets 06:09:26 0° 3° (N) 2,806 6.3 -11.0°
